TimeAKDT,TemperatureF,Dew PointF,Humidity,Sea Level PressureIn,VisibilityMPH,Wind Direction,Wind SpeedMPH,Gust SpeedMPH,PrecipitationIn,Events,Conditions,WindDirDegrees,DateUTC
12:53 AM,32.0,27.0,82,30.17,10.0,Calm,Calm,-,N/A,,Mostly Cloudy,0,2012-10-03 08:53:00
1:53 AM,34.0,27.0,75,30.18,10.0,Calm,Calm,-,N/A,,Mostly Cloudy,0,2012-10-03 09:53:00
2:53 AM,32.0,27.0,82,30.18,10.0,NE,4.6,-,N/A,,Mostly Cloudy,40,2012-10-03 10:53:00
3:53 AM,28.9,25.0,85,30.19,10.0,Calm,Calm,-,N/A,,Mostly Cloudy,0,2012-10-03 11:53:00
4:53 AM,28.9,25.0,85,30.19,10.0,Calm,Calm,-,N/A,,Mostly Cloudy,0,2012-10-03 12:53:00
5:53 AM,28.9,24.1,82,30.20,10.0,Calm,Calm,-,N/A,,Mostly Cloudy,0,2012-10-03 13:53:00
6:53 AM,28.0,24.1,85,30.21,10.0,Calm,Calm,-,N/A,,Mostly Cloudy,0,2012-10-03 14:53:00
7:53 AM,27.0,25.0,92,30.21,10.0,Calm,Calm,-,N/A,,Scattered Clouds,0,2012-10-03 15:53:00
8:53 AM,27.0,24.1,89,30.22,10.0,Calm,Calm,-,N/A,,Scattered Clouds,0,2012-10-03 16:53:00
9:53 AM,30.9,27.0,85,30.21,10.0,Calm,Calm,-,N/A,,Mostly Cloudy,0,2012-10-03 17:53:00
10:53 AM,36.0,28.0,73,30.22,10.0,Calm,Calm,-,N/A,,Scattered Clouds,0,2012-10-03 18:53:00
11:53 AM,42.1,27.0,55,30.22,10.0,NNE,3.5,-,N/A,,Scattered Clouds,20,2012-10-03 19:53:00
12:53 PM,46.0,27.0,47,30.20,10.0,NE,4.6,-,N/A,,Scattered Clouds,50,2012-10-03 20:53:00
1:53 PM,50.0,27.0,41,30.17,10.0,East,3.5,-,N/A,,Scattered Clouds,80,2012-10-03 21:53:00
2:53 PM,52.0,27.0,38,30.14,10.0,East,4.6,-,N/A,,Mostly Cloudy,80,2012-10-03 22:53:00
3:53 PM,53.1,27.0,37,30.10,10.0,East,5.8,-,N/A,,Mostly Cloudy,100,2012-10-03 23:53:00
4:53 PM,53.1,28.0,38,30.08,10.0,ENE,4.6,-,N/A,,Mostly Cloudy,60,2012-10-04 00:53:00
5:53 PM,48.9,30.9,50,30.06,10.0,ENE,3.5,-,N/A,,Mostly Cloudy,70,2012-10-04 01:53:00
6:53 PM,44.1,28.9,55,30.04,10.0,ENE,4.6,-,N/A,,Mostly Cloudy,70,2012-10-04 02:53:00
7:53 PM,44.1,28.0,53,30.02,10.0,NE,5.8,-,N/A,,Mostly Cloudy,40,2012-10-04 03:53:00
8:53 PM,45.0,28.9,53,30.00,10.0,NNE,3.5,-,N/A,,Mostly Cloudy,20,2012-10-04 04:53:00
9:53 PM,44.1,28.0,53,29.99,10.0,NNE,5.8,-,N/A,,Mostly Cloudy,30,2012-10-04 05:53:00
10:53 PM,44.1,28.0,53,29.99,10.0,NNE,5.8,-,N/A,,Mostly Cloudy,20,2012-10-04 06:53:00
11:53 PM,41.0,28.0,60,29.97,10.0,North,5.8,-,N/A,,Mostly Cloudy,10,2012-10-04 07:53:00